Location: Newark
(48.6461°N, 4.3644°W)
Time: 13:19:04
(UTC+00:00)

A-11 Canister half - Pass Details

Date: 04 February 2020
Orbit: 1517 x 1683 km, 47.2° (Epoch: 28 February)

Event Time Altitude Azimuth Distance (km) Brightness Sun altitude
Rises 22:35:29 0° 250° (WSW) 4,787 11.8 -49.8°
Reaches altitude 10° 22:38:36 10° 249° (WSW) 3,781 11.2 -50.2°
Enters shadow 22:39:48 15° 249° (WSW) 3,405 10.9 -50.3°
